QPF
0.02 0.02 0.01 0.01 0.01 0.01 0.03 0.02 0.01 0.01 0.00 0.00 0.00 0.00 0.00 0.00 0.00 0.00 0.00 0.00 0.00 0.01 0.01 0.01 0.01 0.01 0.01 0.01 0.02 0.02 0.04 0.05 0.05 0.05 0.05 0.05 0.05 0.04
0.04 0.03 0.02 0.01 0.01 0.01 0.02 0.02 0.01 0.01 0.00 0.00 0.00 0.00 0.00 0.00 0.00 0.01 0.01 0.01 0.01 0.01 0.01 0.01 0.01 0.01 0.01 0.01 0.02 0.02 0.02 0.02 0.03 0.03 0.04 0.04 0.06 0.06
0.03 0.03 0.02 0.02 0.01 0.01 0.01 0.02 0.01 0.01 0.00 0.00 0.00 0.00 0.00 0.00 0.00 0.00 0.00 0.00 0.00 0.01 0.01 0.01 0.01 0.01 0.01 0.01 0.01 0.02 0.01 0.02 0.02 0.02 0.03 0.04 0.04 0.05
0.03 0.03 0.03 0.03 0.02 0.02 0.01 0.01 0.01 0.01 0.01 0.00 0.00 0.00 0.00 0.00 0.00 0.00 0.00 0.00 0.00 0.00 0.00 0.01 0.01 0.01 0.01 0.01 0.00 0.01 0.01 0.02 0.03 0.04 0.04 0.05 0.06 0.06
0.03 0.03 0.04 0.04 0.03 0.02 0.01 0.01 0.01 0.01 0.01 0.00 0.00 0.00 0.00 0.00 0.00 0.00 0.00 0.00 0.00 0.00 0.00 0.01 0.01 0.01 0.01 0.01 0.00 0.01 0.01 0.01 0.03 0.07 0.09 0.08 0.08 0.08
0.03 0.03 0.03 0.03 0.03 0.02 0.02 0.01 0.01 0.01 0.01 0.01 0.00 0.00 0.00 0.00 0.00 0.00 0.00 0.00 0.00 0.01 0.01 0.01 0.01 0.01 0.01 0.01 0.01 0.01 0.02 0.02 0.03 0.05 0.11 0.12 0.12 0.12
0.02 0.03 0.03 0.03 0.03 0.03 0.02 0.02 0.02 0.02 0.01 0.02 0.01 0.00 0.00 0.01 0.01 0.01 0.00 0.00 0.00 0.01 0.01 0.01 0.01 0.01 0.01 0.01 0.01 0.02 0.02 0.03 0.05 0.07 0.09 0.15 0.16 0.15
0.02 0.03 0.04 0.04 0.03 0.03 0.03 0.03 0.03 0.03 0.02 0.03 0.02 0.02 0.01 0.01 0.01 0.01 0.01 0.01 0.01 0.01 0.01 0.01 0.01 0.01 0.01 0.01 0.02 0.02 0.02 0.03 0.03 0.05 0.07 0.11 0.19 0.21
0.02 0.02 0.03 0.03 0.03 0.02 0.03 0.04 0.03 0.03 0.03 0.03 0.02 0.01 0.01 0.01 0.02 0.01 0.01 0.01 0.01 0.01 0.02 0.01 0.01 0.01 0.01 0.01 0.01 0.02 0.02 0.03 0.03 0.04 0.05 0.08 0.12 0.17
0.02 0.02 0.02 0.02 0.03 0.02 0.02 0.02 0.03 0.03 0.04 0.04 0.03 0.02 0.02 0.01 0.02 0.02 0.02 0.02 0.02 0.01 0.01 0.01 0.01 0.01 0.01 0.01 0.01 0.02 0.02 0.03 0.03 0.03 0.03 0.05 0.08 0.10
0.01 0.01 0.02 0.02 0.03 0.04 0.03 0.03 0.02 0.02 0.03 0.03 0.03 0.04 0.04 0.03 0.03 0.03 0.03 0.03 0.02 0.01 0.02 0.01 0.01 0.01 0.00 0.00 0.00 0.00 0.01 0.01 0.02 0.02 0.03 0.03 0.04 0.07
0.02 0.02 0.02 0.03 0.03 0.04 0.04 0.05 0.05 0.04 0.04 0.04 0.04 0.04 0.05 0.06 0.06 0.05 0.05 0.04 0.03 0.02 0.01 0.02 0.01 0.01 0.01 0.00 0.00 0.00 0.01 0.01 0.01 0.01 0.01 0.02 0.03 0.04
0.04 0.04 0.04 0.04 0.05 0.07 0.09 0.08 0.08 0.08 0.08 0.07 0.05 0.06 0.07 0.07 0.07 0.07 0.06 0.05 0.03 0.02 0.02 0.02 0.01 0.01 0.01 0.01 0.01 0.01 0.01 0.01 0.01 0.01 0.02 0.02 0.02 0.03
0.06 0.05 0.06 0.08 0.10 0.12 0.13 0.13 0.12 0.11 0.10 0.09 0.09 0.09 0.09 0.08 0.08 0.08 0.06 0.04 0.02 0.02 0.03 0.03 0.02 0.02 0.02 0.02 0.01 0.01 0.01 0.01 0.01 0.01 0.01 0.02 0.02 0.02
0.07 0.08 0.09 0.11 0.12 0.12 0.12 0.12 0.12 0.12 0.13 0.14 0.12 0.10 0.07 0.06 0.05 0.04 0.04 0.03 0.02 0.02 0.02 0.03 0.03 0.02 0.02 0.02 0.02 0.02 0.02 0.02 0.02 0.01 0.01 0.01 0.01 0.01
0.08 0.09 0.09 0.09 0.09 0.10 0.11 0.12 0.12 0.13 0.13 0.11 0.08 0.06 0.05 0.04 0.04 0.03 0.03 0.03 0.03 0.03 0.03 0.03 0.03 0.03 0.02 0.03 0.03 0.03 0.03 0.02 0.02 0.02 0.02 0.02 0.02 0.01
0.07 0.05 0.05 0.06 0.08 0.11 0.13 0.15 0.13 0.10 0.08 0.06 0.06 0.07 0.07 0.05 0.04 0.04 0.03 0.03 0.04 0.05 0.04 0.03 0.02 0.02 0.02 0.02 0.02 0.02 0.02 0.02 0.02 0.02 0.02 0.02 0.02 0.03
0.03 0.03 0.04 0.05 0.07 0.08 0.07 0.06 0.05 0.05 0.05 0.06 0.06 0.05 0.05 0.04 0.05 0.05 0.04 0.04 0.05 0.05 0.04 0.03 0.02 0.02 0.02 0.02 0.02 0.02 0.02 0.02 0.01 0.02 0.02 0.03 0.03 0.03
0.03 0.03 0.03 0.03 0.03 0.02 0.02 0.02 0.02 0.02 0.03 0.03 0.04 0.05 0.05 0.04 0.05 0.05 0.05 0.05 0.05 0.04 0.03 0.03 0.03 0.03 0.03 0.03 0.03 0.02 0.02 0.02 0.02 0.02 0.02 0.04 0.04 0.03
0.02 0.02 0.01 0.01 0.02 0.01 0.02 0.02 0.03 0.02 0.02 0.03 0.03 0.03 0.04 0.05 0.05 0.06 0.06 0.05 0.04 0.05 0.05 0.05 0.04 0.04 0.03 0.03 0.02 0.02 0.02 0.02 0.03 0.03 0.03 0.03 0.03 0.04
0.03 0.02 0.02 0.01 0.02 0.02 0.02 0.03 0.03 0.03 0.03 0.03 0.03 0.03 0.03 0.03 0.03 0.04 0.05 0.06 0.06 0.06 0.07 0.05 0.04 0.04 0.03 0.03 0.03 0.02 0.01 0.02 0.02 0.02 0.02 0.03 0.03 0.03
0.04 0.04 0.03 0.03 0.04 0.04 0.04 0.04 0.03 0.03 0.03 0.03 0.03 0.02 0.02 0.02 0.03 0.03 0.04 0.05 0.05 0.04 0.03 0.03 0.02 0.02 0.02 0.02 0.02 0.02 0.02 0.02 0.02 0.03 0.03 0.04 0.04 0.04
0.03 0.04 0.04 0.04 0.04 0.03 0.03 0.02 0.02 0.02 0.02 0.02 0.03 0.03 0.03 0.03 0.03 0.04 0.04 0.04 0.03 0.02 0.02 0.01 0.02 0.02 0.02 0.02 0.02 0.02 0.02 0.02 0.02 0.02 0.02 0.03 0.03 0.04
MSLP
1014.45 1014.58 1014.72 1014.84 1014.92 1014.92 1014.82 1014.62 1014.32 1013.95 1013.54 1013.10 1012.69 1012.31 1011.99 1011.75 1011.59 1011.52 1011.54 1011.64 1011.81 1012.05 1012.34 1012.64 1012.94 1013.23 1013.47 1013.67 1013.82 1013.95 1014.05 1014.17 1014.31 1014.50 1014.73 1014.99 1015.26 1015.53
1013.86 1013.92 1014.01 1014.09 1014.15 1014.15 1014.08 1013.93 1013.71 1013.42 1013.08 1012.72 1012.35 1012.00 1011.67 1011.39 1011.17 1011.02 1010.93 1010.93 1011.00 1011.14 1011.34 1011.59 1011.85 1012.11 1012.36 1012.58 1012.78 1012.97 1013.15 1013.35 1013.57 1013.83 1014.12 1014.43 1014.73 1015.00
1013.31 1013.30 1013.32 1013.36 1013.38 1013.38 1013.33 1013.23 1013.08 1012.87 1012.62 1012.34 1012.04 1011.72 1011.40 1011.10 1010.81 1010.57 1010.37 1010.24 1010.18 1010.19 1010.28 1010.42 1010.61 1010.83 1011.07 1011.32 1011.56 1011.82 1012.09 1012.38 1012.69 1013.03 1013.38 1013.74 1014.07 1014.36
1012.91 1012.83 1012.78 1012.76 1012.75 1012.72 1012.68 1012.61 1012.51 1012.37 1012.20 1011.99 1011.75 1011.47 1011.17 1010.84 1010.51 1010.18 1009.87 1009.61 1009.41 1009.29 1009.24 1009.27 1009.38 1009.54 1009.75 1010.00 1010.28 1010.60 1010.94 1011.31 1011.71 1012.13 1012.55 1012.95 1013.32 1013.63
1012.70 1012.56 1012.45 1012.37 1012.32 1012.26 1012.21 1012.15 1012.07 1011.98 1011.85 1011.70 1011.51 1011.27 1010.98 1010.65 1010.28 1009.88 1009.49 1009.12 1008.79 1008.54 1008.36 1008.28 1008.28 1008.36 1008.53 1008.76 1009.05 1009.39 1009.79 1010.22 1010.68 1011.16 1011.64 1012.09 1012.49 1012.84
1012.72 1012.53 1012.37 1012.25 1012.14 1012.05 1011.97 1011.89 1011.81 1011.73 1011.63 1011.51 1011.34 1011.13 1010.87 1010.54 1010.15 1009.72 1009.27 1008.82 1008.40 1008.03 1007.74 1007.54 1007.43 1007.42 1007.51 1007.69 1007.94 1008.28 1008.68 1009.13 1009.62 1010.14 1010.66 1011.15 1011.60 1011.99
1012.96 1012.74 1012.56 1012.40 1012.25 1012.12 1012.00 1011.89 1011.78 1011.68 1011.58 1011.46 1011.31 1011.12 1010.87 1010.55 1010.17 1009.74 1009.26 1008.76 1008.28 1007.83 1007.44 1007.12 1006.90 1006.78 1006.76 1006.84 1007.02 1007.29 1007.64 1008.07 1008.55 1009.06 1009.60 1010.12 1010.62 1011.07
1013.42 1013.20 1013.00 1012.82 1012.64 1012.48 1012.31 1012.15 1012.00 1011.87 1011.73 1011.60 1011.45 1011.26 1011.03 1010.73 1010.37 1009.95 1009.47 1008.96 1008.43 1007.92 1007.45 1007.03 1006.69 1006.44 1006.28 1006.23 1006.28 1006.43 1006.69 1007.03 1007.45 1007.94 1008.46 1009.00 1009.53 1010.05
1014.09 1013.87 1013.68 1013.49 1013.29 1013.10 1012.89 1012.69 1012.49 1012.30 1012.12 1011.96 1011.79 1011.59 1011.37 1011.09 1010.75 1010.35 1009.89 1009.38 1008.83 1008.27 1007.73 1007.21 1006.75 1006.36 1006.04 1005.82 1005.71 1005.71 1005.81 1006.03 1006.36 1006.77 1007.25 1007.79 1008.35 1008.92
1014.94 1014.74 1014.56 1014.37 1014.17 1013.95 1013.71 1013.46 1013.21 1012.97 1012.74 1012.53 1012.32 1012.11 1011.88 1011.61 1011.29 1010.90 1010.45 1009.94 1009.39 1008.79 1008.18 1007.58 1007.00 1006.46 1005.98 1005.59 1005.29 1005.10 1005.04 1005.10 1005.29 1005.60 1006.01 1006.52 1007.08 1007.69
1015.92 1015.74 1015.57 1015.40 1015.19 1014.95 1014.69 1014.40 1014.10 1013.80 1013.52 1013.26 1013.01 1012.76 1012.51 1012.23 1011.91 1011.53 1011.08 1010.57 1010.00 1009.38 1008.72 1008.04 1007.35 1006.69 1006.06 1005.50 1005.02 1004.65 1004.40 1004.29 1004.33 1004.51 1004.82 1005.26 1005.79 1006.40
1016.97 1016.80 1016.65 1016.47 1016.27 1016.01 1015.72 1015.39 1015.05 1014.71 1014.37 1014.06 1013.76 1013.47 1013.18 1012.88 1012.54 1012.15 1011.70 1011.18 1010.60 1009.95 1009.26 1008.52 1007.76 1006.99 1006.25 1005.55 1004.91 1004.37 1003.96 1003.68 1003.55 1003.58 1003.76 1004.10 1004.56 1005.13
1017.98 1017.82 1017.67 1017.49 1017.27 1017.01 1016.69 1016.33 1015.95 1015.57 1015.19 1014.82 1014.48 1014.15 1013.82 1013.48 1013.11 1012.70 1012.24 1011.71 1011.12 1010.46 1009.75 1008.99 1008.19 1007.36 1006.54 1005.74 1004.99 1004.32 1003.75 1003.31 1003.02 1002.88 1002.92 1003.12 1003.47 1003.95
1018.85 1018.69 1018.53 1018.34 1018.10 1017.81 1017.47 1017.09 1016.69 1016.27 1015.86 1015.46 1015.08 1014.71 1014.34 1013.97 1013.57 1013.14 1012.66 1012.13 1011.54 1010.89 1010.18 1009.43 1008.62 1007.79 1006.94 1006.09 1005.27 1004.49 1003.80 1003.22 1002.76 1002.46 1002.32 1002.34 1002.54 1002.89
1019.49 1019.32 1019.13 1018.91 1018.65 1018.34 1017.98 1017.58 1017.16 1016.73 1016.30 1015.89 1015.49 1015.10 1014.71 1014.31 1013.90 1013.45 1012.97 1012.44 1011.87 1011.24 1010.56 1009.84 1009.07 1008.26 1007.42 1006.56 1005.70 1004.86 1004.08 1003.36 1002.76 1002.27 1001.94 1001.77 1001.78 1001.95
1019.82 1019.62 1019.41 1019.15 1018.86 1018.52 1018.14 1017.74 1017.32 1016.89 1016.47 1016.06 1015.67 1015.28 1014.89 1014.49 1014.07 1013.63 1013.16 1012.64 1012.10 1011.51 1010.88 1010.21 1009.49 1008.73 1007.93 1007.09 1006.23 1005.35 1004.49 1003.66 1002.91 1002.25 1001.72 1001.34 1001.13 1001.11
1019.81 1019.58 1019.32 1019.03 1018.70 1018.34 1017.95 1017.55 1017.14 1016.74 1016.35 1015.98 1015.61 1015.25 1014.88 1014.50 1014.10 1013.68 1013.22 1012.74 1012.23 1011.68 1011.11 1010.50 1009.85 1009.15 1008.40 1007.59 1006.73 1005.83 1004.91 1003.99 1003.10 1002.27 1001.54 1000.95 1000.53 1000.29
1019.47 1019.20 1018.89 1018.56 1018.21 1017.83 1017.44 1017.05 1016.67 1016.31 1015.96 1015.64 1015.32 1015.01 1014.68 1014.34 1013.98 1013.58 1013.16 1012.71 1012.23 1011.73 1011.21 1010.65 1010.06 1009.42 1008.71 1007.94 1007.09 1006.18 1005.21 1004.20 1003.20 1002.22 1001.31 1000.53 999.90 999.46
1018.85 1018.53 1018.19 1017.83 1017.44 1017.06 1016.67 1016.30 1015.95 1015.64 1015.35 1015.08 1014.82 1014.56 1014.30 1014.00 1013.68 1013.32 1012.93 1012.52 1012.07 1011.61 1011.13 1010.62 1010.07 1009.47 1008.81 1008.06 1007.23 1006.30 1005.30 1004.23 1003.13 1002.03 1000.97 1000.02 999.22 998.60
1018.01 1017.66 1017.28 1016.89 1016.49 1016.10 1015.72 1015.37 1015.05 1014.78 1014.54 1014.32 1014.13 1013.93 1013.71 1013.47 1013.19 1012.87 1012.51 1012.13 1011.72 1011.28 1010.83 1010.35 1009.83 1009.27 1008.63 1007.92 1007.10 1006.17 1005.15 1004.04 1002.88 1001.69 1000.54 999.46 998.53 997.77
1017.03 1016.65 1016.26 1015.85 1015.43 1015.03 1014.66 1014.32 1014.03 1013.78 1013.58 1013.41 1013.26 1013.10 1012.93 1012.73 1012.49 1012.20 1011.88 1011.52 1011.14 1010.73 1010.30 1009.84 1009.35 1008.82 1008.21 1007.52 1006.73 1005.82 1004.81 1003.70 1002.51 1001.28 1000.07 998.92 997.89 997.03
1015.98 1015.59 1015.18 1014.76 1014.33 1013.93 1013.55 1013.22 1012.93 1012.70 1012.51 1012.36 1012.24 1012.11 1011.97 1011.80 1011.59 1011.33 1011.04 1010.70 1010.34 1009.96 1009.55 1009.12 1008.67 1008.16 1007.60 1006.95 1006.20 1005.34 1004.36 1003.28 1002.12 1000.89 999.67 998.48 997.40 996.48
1014.91 1014.52 1014.10 1013.68 1013.25 1012.84 1012.45 1012.11 1011.81 1011.57 1011.38 1011.23 1011.11 1010.99 1010.86 1010.70 1010.51 1010.28 1010.01 1009.71 1009.38 1009.02 1008.65 1008.26 1007.84 1007.39 1006.88 1006.29 1005.61 1004.83 1003.92 1002.91 1001.80 1000.62 999.42 998.24 997.14 996.18
Thickness
5752 5751 5749 5748 5746 5744 5742 5739 5733 5728 5729 5732 5732 5734 5732 5730 5729 5726 5724 5722 5720 5718 5716 5715 5713 5711 5709 5707 5705 5704 5702 5701 5700 5699 5698 5697 5696 5695
5751 5749 5747 5746 5744 5743 5741 5739 5736 5732 5728 5731 5731 5731 5730 5729 5727 5724 5722 5721 5719 5717 5714 5712 5711 5709 5706 5704 5703 5701 5699 5698 5696 5696 5694 5694 5692 5692
5749 5747 5745 5744 5742 5740 5738 5736 5734 5731 5728 5729 5729 5728 5726 5725 5724 5722 5720 5718 5717 5715 5713 5710 5708 5706 5704 5702 5700 5698 5696 5694 5693 5692 5691 5690 5689 5689
5746 5744 5743 5742 5739 5738 5735 5733 5731 5730 5727 5724 5724 5724 5723 5721 5720 5718 5717 5715 5713 5712 5710 5708 5706 5703 5701 5699 5697 5695 5693 5691 5689 5688 5687 5687 5686 5685
5745 5743 5741 5739 5737 5735 5733 5731 5729 5728 5724 5721 5720 5719 5718 5717 5715 5714 5713 5711 5710 5708 5707 5705 5703 5701 5698 5696 5694 5692 5690 5687 5685 5684 5683 5682 5681 5680
5743 5741 5739 5737 5735 5733 5730 5728 5726 5723 5720 5718 5715 5714 5712 5711 5709 5708 5707 5706 5704 5704 5702 5700 5699 5697 5695 5692 5690 5688 5686 5683 5681 5680 5679 5678 5677 5676
5739 5738 5736 5735 5733 5730 5728 5726 5723 5719 5716 5713 5711 5708 5707 5705 5704 5703 5701 5700 5699 5698 5696 5695 5693 5691 5689 5688 5686 5684 5682 5679 5677 5675 5674 5673 5671 5670
5734 5733 5732 5731 5729 5726 5725 5722 5720 5716 5713 5710 5707 5704 5703 5701 5699 5697 5694 5692 5691 5692 5689 5688 5687 5685 5684 5682 5680 5679 5677 5674 5672 5670 5668 5667 5665 5664
5728 5727 5727 5726 5723 5721 5720 5717 5715 5713 5711 5708 5705 5702 5700 5698 5695 5692 5689 5687 5685 5685 5681 5681 5680 5678 5678 5677 5674 5672 5670 5669 5666 5664 5662 5661 5659 5658
5724 5722 5720 5719 5718 5715 5713 5711 5710 5708 5706 5703 5701 5700 5698 5695 5691 5688 5685 5681 5679 5677 5674 5672 5673 5671 5671 5670 5668 5665 5664 5662 5660 5657 5656 5654 5652 5651
5719 5718 5716 5714 5712 5709 5706 5705 5703 5703 5702 5699 5696 5693 5691 5687 5684 5680 5677 5673 5672 5670 5667 5664 5665 5663 5663 5662 5661 5658 5656 5654 5652 5650 5648 5647 5645 5642
5713 5712 5710 5708 5706 5703 5700 5698 5696 5695 5694 5692 5688 5686 5683 5680 5677 5674 5671 5666 5664 5663 5661 5657 5656 5653 5654 5654 5652 5650 5648 5646 5644 5642 5640 5638 5636 5633
5706 5706 5705 5702 5700 5697 5694 5692 5691 5689 5686 5683 5681 5678 5676 5673 5670 5667 5664 5660 5657 5656 5654 5650 5647 5644 5642 5643 5643 5641 5639 5637 5635 5634 5632 5630 5628 5625
5701 5700 5698 5696 5693 5691 5688 5686 5683 5680 5678 5674 5672 5670 5668 5666 5664 5661 5658 5654 5651 5649 5646 5642 5639 5636 5633 5632 5632 5633 5630 5628 5626 5625 5624 5622 5620 5618
5695 5693 5691 5689 5686 5683 5681 5678 5675 5672 5669 5666 5664 5663 5661 5658 5656 5653 5650 5647 5643 5640 5638 5634 5632 5629 5626 5625 5624 5623 5622 5620 5618 5617 5615 5614 5612 5610
5687 5684 5682 5680 5678 5676 5673 5671 5668 5665 5662 5659 5657 5655 5653 5650 5647 5644 5641 5638 5634 5632 5629 5627 5624 5622 5619 5618 5616 5615 5614 5612 5612 5609 5607 5606 5604 5603
5678 5675 5674 5672 5670 5668 5665 5663 5660 5656 5653 5650 5648 5646 5643 5641 5638 5634 5631 5627 5625 5623 5621 5618 5616 5614 5612 5611 5609 5609 5607 5606 5604 5601 5598 5598 5598 5596
5669 5667 5666 5665 5662 5660 5658 5655 5652 5649 5646 5643 5640 5636 5634 5631 5628 5625 5621 5618 5615 5613 5611 5609 5606 5605 5604 5604 5602 5601 5599 5597 5596 5593 5590 5589 5591 5591
5661 5660 5658 5656 5654 5652 5650 5648 5645 5641 5637 5634 5631 5628 5625 5622 5619 5616 5612 5609 5607 5604 5602 5599 5597 5595 5594 5595 5595 5591 5589 5588 5586 5585 5583 5582 5583 5585
5653 5652 5650 5648 5646 5644 5641 5639 5636 5633 5629 5625 5622 5619 5616 5613 5610 5607 5604 5601 5599 5596 5592 5589 5588 5586 5585 5584 5584 5583 5580 5578 5577 5576 5575 5574 5574 5575
5646 5643 5641 5639 5637 5634 5632 5630 5627 5624 5620 5617 5614 5610 5607 5604 5601 5599 5596 5593 5589 5587 5584 5582 5580 5577 5574 5573 5573 5574 5572 5569 5568 5566 5566 5565 5566 5568
5638 5635 5633 5630 5627 5625 5622 5620 5617 5614 5611 5608 5605 5602 5599 5596 5593 5590 5587 5584 5581 5578 5576 5574 5570 5568 5565 5564 5564 5563 5562 5561 5559 5557 5556 5556 5556 5559
5629 5627 5624 5621 5618 5615 5612 5610 5607 5604 5601 5598 5595 5593 5590 5587 5584 5581 5578 5575 5572 5569 5566 5564 5561 5557 5556 5554 5553 5553 5552 5551 5550 5549 5549 5548 5548 5549